Flag for Germany Weather past 2 weeks in Viernheim, Hesse, Germany

Now
48 °F

Broken clouds.


Feels Like: 42 °F
Forecast: 40 / 47 °F
Wind: 18 mph from West

Location: Baden Wurttemberg - Neuostheim

Current Time: Mar 31, 2015 at 6:11:06 PM

Latest Report: Mar 31, 2015 at 5:20 PM


Visibility: N/A

Pressure: 29.77 "Hg

Humidity: 71%

Dew point: 39 °F

Location of ViernheimLocation

Historic Weather in Viernheim — Graph

°F

Viernheim temperature yesterday

Maximum temperature yesterday: 54 °F (at 3:50 PM)
Minimum temperature yesterday: 46 °F (at 6:50 AM)
Average temperature yesterday: 50 °F

Past Weeks' High & Low Weather Summary

 TemperatureHumidityPressure
High64 °F (Mar 17, 3:50 PM)100% (Mar 21, 9:20 AM)30.30 "Hg (Mar 21, 9:20 AM)
Low30 °F (Mar 24, 5:20 AM)34% (Mar 20, 3:50 PM)29.50 "Hg (Mar 30, 5:50 AM)
Average50 °F63%29.98 "Hg
* Reported Mar 16 3:20 PM — Mar 31 4:50 PM, Viernheim, Weather by CustomWeather, © 2015

Note: Actual official high and low records may vary slightly from our data, if they occured in-between our weather recording intervals... More about our weather records

Advertising

Viernheim weather history for previous 24 hours

 ConditionsComfort  
Time TempWeatherWind HumidityBarometerVisibility
4:50 PM
Tue, Mar 31
46 °FScattered showers. Broken clouds.20 mph76%29.74 "HgN/A
4:20 PM46 °FScattered showers. Partly sunny.28 mph82%29.74 "Hg6 mi
3:50 PM50 °FScattered showers. Partly sunny.22 mph62%29.68 "HgN/A
3:20 PM52 °FScattered showers. Scattered clouds.30 mph72%29.68 "HgN/A
2:50 PM57 °FPassing clouds.28 mph51%29.65 "HgN/A
2:20 PM55 °FPassing clouds.26 mph55%29.62 "HgN/A
1:50 PM52 °FScattered showers. Broken clouds.22 mph67%29.65 "HgN/A
1:20 PM54 °FScattered showers. Partly sunny.25 mph67%29.62 "HgN/A
12:50 PM54 °FPartly sunny.23 mph67%29.62 "HgN/A
12:20 PM55 °FLight rain. Broken clouds.21 mph67%29.59 "HgN/A
11:50 AM54 °FLight rain. Partly sunny.20 mph77%29.59 "HgN/A
11:20 AM54 °FLight rain. Partly sunny.29 mph72%29.59 "HgN/A
10:50 AM55 °FLight rain. Cloudy.20 mph72%29.56 "HgN/A
10:20 AM55 °FLight rain. Partly sunny.22 mph67%29.56 "HgN/A
9:50 AM54 °FLight rain. Partly sunny.15 mph82%29.56 "HgN/A
9:20 AM55 °FLight rain. Overcast.22 mph72%29.53 "HgN/A
8:50 AM57 °FPartly sunny.22 mph63%29.50 "HgN/A
8:20 AM57 °FOvercast.22 mph63%29.50 "HgN/A
7:50 AM57 °FPassing clouds.20 mph63%29.50 "HgN/A
7:20 AM57 °FOvercast.17 mph67%29.50 "HgN/A
6:50 AM55 °FMostly cloudy.14 mph77%29.50 "HgN/A
6:20 AM52 °FLight rain. Mostly cloudy.14 mph94%29.53 "HgN/A
5:50 AM52 °FLight rain. Mostly cloudy.14 mph88%29.56 "HgN/A
5:20 AM50 °FLight rain. Overcast.15 mph94%29.56 "HgN/A
9:20 PM
Mon, Mar 30
48 °FPassing clouds.6 mph43%29.92 "HgN/A
8:50 PM48 °FPassing clouds.9 mph43%29.92 "HgN/A
8:20 PM50 °FSunny.9 mph40%29.92 "Hg10 mi
7:50 PM50 °FSunny.14 mph40%29.89 "Hg10 mi
7:20 PM52 °FPassing clouds.14 mph41%29.89 "HgN/A
6:50 PM52 °FPassing clouds.16 mph38%29.86 "HgN/A
6:20 PM52 °FSunny.20 mph38%29.86 "Hg10 mi
Weather by CustomWeather, © 2015

See weather overviewHow to use our weather pages